Location: Diati
(11.8376°N, 2.5966°E)
Time: 18:13:47
(UTC+00:00)

MOS 1 Rocket - Pass Details

Date: 21 September 2020
Orbit: 613 x 831 km, 97.4° (Epoch: 19 October)

Event Time Altitude Azimuth Distance (km) Brightness Sun altitude
Rises 18:17:31 0° 22° (NNE) 2,879 6.3 -8.5°
Reaches altitude 10° 18:19:47 10° 29° (NNE) 1,967 5.4 -9.1°
Maximum altitude 18:23:48 42° 100° (E) 884 3.4 -10.1°
Drops below altitude 10° 18:27:51 10° 171° (S) 1,984 5.5 -11.0°
Sets 18:30:09 0° 178° (S) 2,907 6.5 -11.6°
